Location: Calvatone
(45.1167°N, 10.4333°E)
Time: 15:33:24
(UTC+00:00)

Cosmos 724 - Pass Details

Date: 28 January 2023
Orbit: 848 x 946 km, 65.6° (Epoch: 29 March)

Event Time Altitude Azimuth Distance (km) Brightness Sun altitude
Rises 18:07:55 0° 210° (SSW) 3,444 7.9 -19.1°
Reaches altitude 10° 18:10:21 10° 209° (SSW) 2,523 7.1 -19.5°
Maximum altitude 18:16:13 84° 123° (ESE) 904 4.2 -20.6°
Enters shadow 18:19:44 27° 37° (NE) 1,687 5.4 -21.2°
